Location: Berlin
(42.3812°N, 71.6370°W)
Time: 06:01:59
(UTC+00:00)

Cosmos 1741 Rocket - Pass Details

Date: 15 November 2025
Orbit: 756 x 779 km, 74.0° (Epoch: 09 December)

Event Time Altitude Azimuth Distance (km) Brightness Sun altitude
Rises 10:48:56 0° 337° (NNW) 3,271 6.9 -9.3°
Reaches altitude 10° 10:51:20 10° 336° (NNW) 2,339 6.1 -8.8°
Maximum altitude 10:56:37 71° 253° (WSW) 823 4.0 -7.9°
Drops below altitude 10° 11:01:52 10° 170° (S) 2,317 6.9 -7.0°
Sets 11:04:14 0° 168° (SSE) 3,237 7.7 -6.6°
